This demonstration page uses our WeatherBlox Daily Observations layout. Learn more.

Left ArrowRight Arrow

Hourly Observations for January 18, 2015

Temp ( °F °C ) Dew Point ( °F °C ) Humidity (%) Winds ( mph kmh ) Pressure ( in mb ) Visibility ( mi km ) Precip ( " mm )
12:15 am 00:15 Cloudy 41 5 28 -2 61 61 W 23 37 29.83 1010 10 16.0934 N/A
12:35 am 00:35 Cloudy 39 4 30 -1 70 70 W 15 24 29.83 1010 10 16.0934 N/A
12:55 am 00:55 Cloudy 39 4 30 -1 70 70 W 13 20 29.83 1010 10 16.0934 N/A
1:16 am 01:16 Cloudy 37 3 34 1 87 87 WSW 10 17 29.83 1010 10 16.0934 N/A
1:35 am 01:35 Mostly Cloudy 37 3 36 2 93 93 SW 8 13 29.83 1010 10 16.0934 N/A
1:55 am 01:55 Partly Cloudy 37 3 37 3 100 100 SSW 5 7 29.83 1010 10 16.0934 N/A
2:15 am 02:15 Clear 37 3 37 3 100 100 SSW 7 11 29.83 1010 10 16.0934 N/A
2:35 am 02:35 Clear 36 2 36 2 100 100 SSW 7 11 29.83 1010 10 16.0934 N/A
2:55 am 02:55 Clear 36 2 36 2 100 100 S 6 9 29.8 1009 10 16.0934 N/A
3:15 am 03:15 Clear 36 2 36 2 100 100 SSW 7 11 29.8 1009 10 16.0934 N/A
3:35 am 03:35 Partly Cloudy 36 2 N/A N/A S 7 11 29.8 1009 10 16.0934 N/A
3:56 am 03:56 Mostly Cloudy 36 2 N/A N/A SSW 7 11 29.8 1009 10 16.0934 N/A
4:15 am 04:15 Mostly Cloudy 36 2 N/A N/A SSW 7 11 29.8 1009 10 16.0934 N/A
4:35 am 04:35 Cloudy 36 2 N/A N/A SW 10 17 29.8 1009 10 16.0934 N/A
4:55 am 04:55 Mostly Cloudy 37 3 37 3 100 100 WSW 13 20 29.83 1010 10 16.0934 N/A
5:15 am 05:15 Cloudy 37 3 37 3 100 100 WSW 14 22 29.83 1010 10 16.0934 N/A
5:36 am 05:36 Cloudy 37 3 36 2 93 93 W 13 20 29.83 1010 10 16.0934 N/A
5:55 am 05:55 Cloudy 37 3 34 1 87 87 W 15 24 29.83 1010 10 16.0934 N/A
6:15 am 06:15 Cloudy 37 3 30 -1 75 75 WSW 14 22 29.83 1010 10 16.0934 N/A
6:36 am 06:36 Cloudy 37 3 30 -1 75 75 W 17 28 29.83 1010 10 16.0934 N/A
6:55 am 06:55 Cloudy 36 2 30 -1 81 81 W 15 24 29.83 1010 10 16.0934 N/A
7:15 am 07:15 Cloudy 36 2 30 -1 81 81 W 16 26 29.85 1011 10 16.0934 N/A
7:35 am 07:35 Cloudy 36 2 30 -1 81 81 W 14 22 29.85 1011 10 16.0934 N/A
7:55 am 07:55 Cloudy 36 2 28 -2 75 75 W 13 20 29.85 1011 10 16.0934 N/A
8:16 am 08:16 Cloudy 36 2 28 -2 75 75 W 12 19 29.85 1011 10 16.0934 N/A
8:35 am 08:35 Cloudy 36 2 27 -3 70 70 W 14 22 29.85 1011 10 16.0934 N/A
8:55 am 08:55 Cloudy 36 2 27 -3 70 70 W 16 26 29.88 1012 10 16.0934 N/A
9:16 am 09:16 Cloudy 36 2 27 -3 70 70 W 18 30 29.88 1012 10 16.0934 N/A
9:35 am 09:35 Cloudy 36 2 27 -3 70 70 W 17 28 29.88 1012 10 16.0934 N/A
9:55 am 09:55 Cloudy 36 2 27 -3 70 70 W 15 24 29.91 1013 10 16.0934 N/A
10:15 am 10:15 Cloudy 36 2 28 -2 75 75 W 15 24 29.91 1013 10 16.0934 N/A
10:35 am 10:35 Cloudy 36 2 27 -3 70 70 W 15 24 29.91 1013 10 16.0934 N/A
10:56 am 10:56 Cloudy 36 2 27 -3 70 70 W 15 24 29.91 1013 10 16.0934 N/A
11:15 am 11:15 Cloudy 37 3 27 -3 65 65 W 15 24 29.91 1013 10 16.0934 N/A
11:35 am 11:35 Cloudy 37 3 27 -3 65 65 W 13 20 29.91 1013 10 16.0934 N/A
11:55 am 11:55 Cloudy 37 3 27 -3 65 65 W 17 28 29.91 1013 10 16.0934 N/A
12:15 pm 12:15 Cloudy 39 4 27 -3 61 61 W 15 24 29.91 1013 10 16.0934 N/A
1:15 pm 13:15 Partly Cloudy 41 5 27 -3 57 57 W 18 30 29.88 1012 10 16.0934 N/A
1:35 pm 13:35 Mostly Cloudy 41 5 25 -4 53 53 W 17 28 29.88 1012 10 16.0934 N/A
2:16 pm 14:16 Partly Cloudy 43 6 23 -5 46 46 W 21 33 29.88 1012 10 16.0934 N/A
2:35 pm 14:35 Partly Cloudy 45 7 25 -4 46 46 W 16 26 29.88 1012 10 16.0934 N/A
2:55 pm 14:55 Mostly Cloudy 43 6 25 -4 49 49 W 22 35 29.91 1013 10 16.0934 N/A
3:15 pm 15:15 Cloudy 41 5 25 -4 53 53 W 16 26 29.91 1013 10 16.0934 N/A
3:35 pm 15:35 Cloudy 41 5 25 -4 53 53 W 18 30 29.91 1013 10 16.0934 N/A
3:56 pm 15:56 Mostly Cloudy 41 5 25 -4 53 53 W 16 26 29.91 1013 10 16.0934 N/A
4:15 pm 16:15 Mostly Cloudy 41 5 25 -4 53 53 W 15 24 29.94 1014 10 16.0934 N/A
4:35 pm 16:35 Mostly Cloudy 41 5 25 -4 53 53 W 13 20 29.94 1014 10 16.0934 N/A
4:55 pm 16:55 Cloudy 39 4 25 -4 56 56 W 17 28 29.94 1014 10 16.0934 N/A
5:15 pm 17:15 Cloudy 39 4 25 -4 56 56 W 15 24 29.97 1015 10 16.0934 N/A
5:36 pm 17:36 Cloudy 39 4 25 -4 56 56 W 14 22 29.97 1015 10 16.0934 N/A
5:55 pm 17:55 Mostly Cloudy 37 3 23 -5 56 56 W 13 20 29.97 1015 10 16.0934 N/A
6:15 pm 18:15 Mostly Cloudy 37 3 23 -5 56 56 W 10 17 30 1016 10 16.0934 N/A
6:35 pm 18:35 Partly Cloudy 37 3 25 -4 60 60 W 10 17 30 1016 10 16.0934 N/A
6:55 pm 18:55 Partly Cloudy 36 2 25 -4 65 65 WNW 8 13 30.03 1017 10 16.0934 N/A
7:15 pm 19:15 Partly Cloudy 34 1 25 -4 70 70 W 6 9 30.03 1017 10 16.0934 N/A
7:35 pm 19:35 Clear 34 1 25 -4 70 70 W 8 13 30.03 1017 10 16.0934 N/A
7:56 pm 19:56 Clear 32 0 23 -5 69 69 W 7 11 30.03 1017 10 16.0934 N/A
8:15 pm 20:15 Clear 32 0 23 -5 69 69 W 6 9 30.06 1018 10 16.0934 N/A
8:35 pm 20:35 Clear 32 0 27 -3 80 80 WNW 5 7 30.06 1018 10 16.0934 N/A
8:55 pm 20:55 Clear 34 1 25 -4 70 70 W 5 7 30.06 1018 10 16.0934 N/A
9:15 pm 21:15 Clear 32 0 25 -4 75 75 W 3 6 30.06 1018 10 16.0934 N/A
9:36 pm 21:36 Clear 30 -1 27 -3 86 86 Calm 30.06 1018 10 16.0934 N/A
9:55 pm 21:55 Clear 30 -1 30 -1 100 100 Calm 30.06 1018 10 16.0934 N/A
10:15 pm 22:15 Partly Cloudy 32 0 N/A N/A Calm 30.06 1018 10 16.0934 N/A
10:36 pm 22:36 Clear 32 0 N/A N/A Calm 30.06 1018 10 16.0934 N/A
10:55 pm 22:55 Clear 32 0 32 0 100 100 WSW 3 6 30.06 1018 10 16.0934 N/A
11:15 pm 23:15 Clear 30 -1 30 -1 100 100 Calm 30.09 1019 10 16.0934 N/A
11:35 pm 23:35 Clear 30 -1 N/A N/A SSW 5 7 30.09 1019 10 16.0934 N/A
11:55 pm 23:55 Clear 30 -1 N/A N/A SW 3 6 30.09 1019 10 16.0934 N/A

Powered by AerisWeather